Regional Weather Roundup
Issued by NWS

Home | Current Version | Previous Version | Graphics & Text | Print | Product List | Glossary On
Versions: 1 2 3 4 5 6 7 8 9 10 11 12 13 14 15 16 17 18 19 20 21 22 23 24 25 26 27 28 29 30 31 32 33 34 35 36 37 38 39 40 41 42 43 44 45 46 47 48 49 50
000
ASUS45 KSLC 260710
RWRUT

UTAH REGIONAL WEATHER ROUNDUP
NATIONAL WEATHER SERVICE SALT LAKE CITY UT
100 AM MDT THU APR 26 2018

UTZ001>011-023>025-260800-

NORTHERN UTAH

CITY           SKY/WX    TMP DP  RH WIND       PRES   REMARKS
BRIGHAM CITY   CLEAR     47  37  67 CALM      30.15R
HILL AFB       CLEAR     52  25  34 E12       30.15R
LOGAN          CLEAR     41  35  79 CALM      30.15R
OGDEN          CLEAR     48  27  44 S7        30.14R
SALT LAKE CITY PTCLDY    54  38  54 W3        30.13R
TOOELE VALLEY  CLEAR     41  32  70 S5        30.15R
WENDOVER       CLEAR     60  24  25 N12       30.15R
HEBER CITY       N/A     41  25  52 E6        30.18R
WEST JORDAN    CLEAR     54  32  42 W9        30.15R

$$

UTZ011>015-024>027-260800-

CENTRAL/NORTHEAST UTAH

CITY           SKY/WX    TMP DP  RH WIND       PRES   REMARKS
PROVO AIRPORT  PTCLDY    50  38  63 E3        30.14R
MOAB/CANYONLAN MOCLDY    53  10  18 CALM      30.05S
DELTA          CLEAR     45  36  70 N5        30.12R
PRICE          CLOUDY    53  18  25 E6        30.13S
RICHFIELD      CLEAR     45  30  57 CALM      30.16R
ROOSEVELT      CLOUDY    48  23  37 CALM      30.15R
VERNAL         MOCLDY    60  22  23 N8        30.13R

$$

UTZ013>016-019>022-027-260800-

SOUTHERN UTAH

CITY           SKY/WX    TMP DP  RH WIND       PRES   REMARKS
BRYCE CANYON   CLEAR     37  20  50 W7        30.26S WCI  32
CEDAR CITY     CLEAR     55  26  32 SE7       30.13S
MILFORD        CLEAR     49  33  54 CALM      30.12R
ST GEORGE      MOSUNNY   69  25  19 E8        29.98S
HANKSVILLE     PTCLDY    46   3  17 CALM      30.09S
KANAB          CLEAR     52  27  37 CALM      30.15R
BLANDING         N/A     46  13  26 NW8       30.20F

$$

REGIONAL REPORTS     COLORADO/ARIZONA

CITY           SKY/WX    TMP DP  RH WIND       PRES   REMARKS
CRAIG, CO      PTCLDY    44  24  45 SW13      30.14S
GRAND JUNCTION MOCLDY    51  12  21 E5        30.08R
RIFLE, CO      MOCLDY    45  22  40 CALM      30.12R
MONTROSE, CO   MOCLDY    47  16  29 SE12      30.14S
CORTEZ, CO     PTCLDY    37   4  25 E8        30.15S WCI  31
COLORADO CITY    N/A     46  28  49 S3        30.13S
PAGE, AZ       CLEAR     63  22  20 W5        30.05S
GRAND CANYON   CLEAR     38  14  37 CALM      30.21S HAZE
KINGMAN, AZ    CLEAR     63  19  18 CALM      30.01F
FLAGSTAFF, AZ  CLEAR     39  17  41 CALM      30.23F

$$

REGIONAL REPORTS    NEVADA/IDAHO/WYOMING

CITY           SKY/WX    TMP DP  RH WIND       PRES   REMARKS
LAS VEGAS, NV  PTCLDY    79  25  13 NW5       29.90F
ELY, NY        CLEAR     37  18  46 S9        30.21R WCI  30
ELKO, NV       CLEAR     50  25  37 E6        30.19R
POCATELLO, ID  CLEAR     49  28  44 SW9       30.16R
BURLEY, ID     CLEAR     44  26  49 SW9       30.13R
FORT BRIDGER,    N/A     42  19  40 W9        30.29R
EVANSTON, WY   PTCLDY    45  20  36 SE6       30.25R
ROCK SPRINGS,  CLEAR     43  15  32 NE10      30.24R
KEMMERER, WY   CLEAR     37  27  65 CALM      30.26R

$$



USA.gov is the U.S. government's official web portal to all federal, state and local government web resources and services.